Regional Weather Roundup
Issued by NWS San Diego, CA

Home | Current Version | Previous Version | Text Only | Print | Product List | Glossary On
Versions: 1 2 3 4 5 6 7 8 9 10 11 12 13 14 15 16 17 18 19 20 21 22 23 24 25 26 27 28 29 30 31 32 33 34 35 36 37 38 39 40 41 42 43 44 45 46 47 48 49 50
000
ASUS46 KSGX 280611
RWRSGX

SAN DIEGO HOURLY WEATHER ROUNDUP
NATIONAL WEATHER SERVICE SAN DIEGO CA
1100 PM PDT FRI MAY 27 2016

NOTE: "FAIR" INDICATES FEW OR NO CLOUDS BELOW 12,000 FEET WITH NO
SIGNIFICANT WEATHER AND/OR OBSTRUCTIONS TO VISIBILITY.

CAZ042-043-060-061-PZZ750-775-280700-

GREATER SAN DIEGO AREA

CITY           SKY/WX    TMP DP  RH WIND       PRES   REMARKS
LINDBERGH FLD  CLOUDY    63  55  75 SW5       29.91S
POINT LOMA       N/A     61  55  79 SW6         N/A
NATIONAL CITY    N/A     62  57  82 S2        29.91S
IMPERIAL BEACH CLOUDY    63  54  72 SW5       29.91S
BROWN FIELD    MOCLDY    57  54  89 W3        29.90S
MIRAMAR MCAS   CLOUDY    64  54  69 CALM      29.90S
MONTGOMERY FLD CLOUDY    63  54  72 CALM      29.90S

$$

NORTH SAN DIEGO COUNTY

CITY           SKY/WX    TMP DP  RH WIND       PRES   REMARKS
CAMP PENDLETON CLOUDY    63  56  78 CALM      29.89S
OCEANSIDE AP   CLOUDY    62  54  74 CALM      29.89S
OCEANSIDE HBR    N/A     63  58  84 CALM      29.92S
VISTA            N/A     61  56  83 CALM      29.88S
CARLSBAD       CLOUDY    62  56  80 CALM      29.89S
DEL MAR          N/A     62  57  83 CALM      29.92F
LA JOLLA SCRIP   N/A     62  57  84 W1        29.89F
ESCONDIDO        N/A     62  56  82 CALM      29.90F
SAN MARCOS       N/A     61  51  70 CALM      29.87F
POWAY            N/A     60  54  81 CALM      29.91S

$$

EAST SAN DIEGO COUNTY

CITY           SKY/WX    TMP DP  RH WIND       PRES   REMARKS
RAMONA         CLEAR     52  49  89 CALM      29.90S
SANTEE LAKES     N/A     59  54  84 CALM      29.89S
LA MESA          N/A     59  55  86 CALM      29.84R
CAMPO            N/A     51  46  83 NE5       29.89S

$$

ORANGE COUNTY AND THE LOS ANGELES BASIN

CITY           SKY/WX    TMP DP  RH WIND       PRES   REMARKS
JOHN WAYNE AP  CLOUDY    63  56  78 CALM      29.89S
LAKE FOREST FR   N/A     59  52  79 CALM      29.77F
HUNTINGTON BCH   N/A     61  57  87 CALM      29.91S
LOS ALAMITOS   MOCLDY    59  56  88 S5        29.89S
FULLERTON      MOCLDY    62  55  77 S5        29.88F
LONG BEACH     CLOUDY    61  56  83 CALM      29.89S
L.A. AP        MOCLDY    60  55  83 VRB5      29.89F
L.A. DOWNTOWN  CLEAR     60  54  80 CALM      29.89S

$$

THE INLAND EMPIRE

CITY           SKY/WX    TMP DP  RH WIND       PRES   REMARKS
CORONA         CLEAR     60  56  86 CALM      29.90S
CHINO          CLEAR     61  55  81 W6        29.90F
ONTARIO        CLEAR     61  54  77 VRB7      29.89F
RIVERSIDE AP   CLEAR     61  54  77 W5        29.90R
MARCH ARB      CLEAR     59  54  83 NW5       29.90S
FRENCH VALLEY  FAIR      57  54  88 CALM      29.91S

$$

SAN BERNARDINO AND RIVERSIDE COUNTY MOUNTAINS

CITY           SKY/WX    TMP DP  RH WIND       PRES   REMARKS
BIG BEAR AP    CLEAR     43  32  65 CALM      30.08S
PINE COVE        N/A     51  43  74 CALM      29.84S

$$

SOUTHERN DESERT INCLUDING THE COACHELLA VALLEY

CITY           SKY/WX    TMP DP  RH WIND       PRES   REMARKS
PALM SPRINGS   CLEAR     79  49  34 NW8       29.77R
THOUSAND PALMS   N/A     78  50  37 NW9       29.74R
PALM DESERT      N/A     79  52  39 N2        31.16S
THERMAL        CLEAR     79  48  33 NW6       29.72R
BLYTHE         CLEAR     83  34  17 S9        29.75R
IMPERIAL AP    CLEAR     77  42  28 SW7       29.73S
EL CENTRO NAS  CLEAR     79  41  25 SW5       29.75S
YUMA AZ        CLEAR     76  42  29 S3        29.75
MEXICALI       CLEAR     73  37  27 SE3       29.74S

$$

UPPER DESERT

CITY           SKY/WX    TMP DP  RH WIND       PRES   REMARKS
VICTORVILLE AP CLEAR     66  36  32 SW7       29.91S
HESPERIA         N/A     63  45  51 NW2       29.93R
PALMDALE       CLEAR     67  34  29 SW12      29.89S
LANCASTER      CLEAR     68  40  35 W12       29.87F
EDWARDS AFB    CLEAR     68  39  33 SW8       29.84S
DAGGETT        CLEAR     76  32  20 SW12      29.83R
29 PALMS N     CLEAR     74  40  29 W14       29.89R
NEEDLES        CLEAR     84  32  15 W13       29.74S

$$

REGIONAL REPORTS

CITY           SKY/WX    TMP DP  RH WIND       PRES   REMARKS
SANTA BARBARA  CLEAR     57  54  89 E5        29.86S
SANDBERG       CLEAR     63  41  44 W10       30.00R
LAS VEGAS NV   CLEAR     81  25  12 SW5       29.75R
PHOENIX AZ     CLEAR     81  33  17 CALM      29.76S
TIJUANA        MOCLDY    59  52  77 CALM      29.93R
ENSENADA NW      N/A     60  32  34 W6        29.88S

$$

OFFSHORE ISLANDS

CITY           SKY/WX    TMP DP  RH WIND       PRES   REMARKS
CATALINA ARPT  FOG       54  53  97 SE7       29.91S VSB 1/2
SAN NICOLAS IS CLOUDY   N/A N/A N/A NW12      29.89S

$$

MARINE AND OFFSHORE BUOY REPORTS

STATION/POSITION SKY/WX   TEMP    WIND        PRES    SWELL
                          AIR SEA DIR/SP/G            HT/PER/DIR
                          (F)     (DEG/KT/KT) (MB)    (FT/S/D)
TANNER BANKS               58 60  310/ 10/ 12 1012.7R   7/340/10
S CLEMENTE BASIN           60 62  340/  4/  6 1012.4S   5/300/ 9
SAN NICOLAS IS.               59                N/A     3/320/11
SO. S. ROSA ISLA           55 58  300/ 16/ 17 1011.6R   5/320/11
W. S. BARBARA CH           54 53  320/ 17/ 21 1010.3F   5/320/10
M. S. BARBARA CH           56 59  250/ 16/ 17 1011.6R
S. MONICA BASIN            59 63   40/  4/  8 1012.2R   3/260/ 6
S PEDRO CHANNEL               62                N/A     2/170/17
OCEANSIDE OFFSHR              65                N/A     2/180/17
TORREY PINES OTR              66                N/A     2/200/17
LA JOLLA 1                 63 66  320/  3/  4 1012.3R
SAN DIEGO BAY                 69              1012.7R
POINT LOMA SOUTH              66                N/A     2/200/15

$$




USA.gov is the U.S. government's official web portal to all federal, state and local government web resources and services.